Tracking 19192 objects as of 21-Jun-2018
HD Live streaming from Space Station
objects crossing your sky now

FENGYUN 1C DEB

Track FENGYUN 1C DEB now!
10-day predictions


NORAD ID: 33707
Int'l Code: 1999-025DGU
Perigee: 598.6 km
Apogee: 753.3 km
Inclination: 99.1 °
Period: 98.1 minutes
Semi major axis: 7046 km
RCS: 0.0075 m2 (small)
Launch date: May 10, 1999
Source: People's Republic of China (PRC)
Launch site: Taiyaun Space Center, China (TSC)

Note: This is SATELLITE DEBRIS
aabbcc
Your satellite tracking list
Your tracking list is empty




NASA's NSSDC Master Catalog

Two Line Element Set (TLE):
1 33707U 99025DGU 18171.28540703 +.00001415 +00000-0 +23832-3 0  9994
2 33707 099.0844 196.0153 0109771 014.5994 345.8335 14.67580579578618
Source of the keplerian elements: AFSPC